Location: Kazimierzów
(51.4439°N, 19.4047°E)
Time: 14:39:31
(UTC+00:00)

Daily predictions for brighter satellites

Satellite Brightness Start Highest point End
(mag) Time Altitude Azimuth Time Altitude Azimuth Time Altitude Azimuth
SPOT 3 Rocket 3.7 19:38:04 10° SSE 19:43:10 71° ENE 19:48:20 10° NNW
Cosmos 1943 Rocket 3.0 19:38:53 10° SSE 19:43:45 30° ESE 19:48:35 10° NE
Timation 1 Rocket 4.4 19:39:52 10° NNW 19:45:54 90° ESE 19:51:51 10° SSE
Cosmos 1743 Rocket 3.6 19:43:46 10° N 19:48:08 86° W 19:52:31 10° S
Lacrosse 5 rocket 0.9 19:46:36 10° WSW 19:50:12 88° SSE 19:53:45 10° ENE
Cosmos 1745 Rocket 4.2 19:43:58 10° N 19:50:15 67° ENE 19:56:33 10° SSE
YAOGAN 11 4.1 19:49:40 10° NNE 19:54:07 79° ESE 19:58:29 10° SSW
Meteor 1-22 Rocket 4.2 19:55:43 10° NNW 20:01:02 82° W 20:06:20 10° S
USA 245 2.4 19:59:26 10° SSE 20:02:21 81° WSW 20:04:52 10° NNW
Cosmos 1624 Rocket 4.3 19:59:37 10° NNW 20:04:54 60° ENE 20:10:09 10° SE
Cosmos 1680 Rocket 4.0 20:02:41 10° S 20:07:27 39° ESE 20:12:17 10° NE
Cosmos 1633 Rocket 3.2 20:05:44 10° N 20:10:07 67° ENE 20:14:30 10° SSE
Okean 2 4.4 20:07:54 10° SSE 20:11:11 27° E 20:14:29 10° NNE
Cosmos 2056 Rocket 3.6 20:08:52 10° NNW 20:13:59 71° ENE 20:18:52 11° SSE
USA 186 3.1 20:12:32 10° SSW 20:14:09 19° W 20:15:43 10° NW
NOSS 2-3 (D) 4.3 20:10:37 10° WSW 20:14:11 50° NW 20:18:06 10° NE
Okean-O 4.1 20:11:20 10° SSW 20:15:18 33° W 20:19:18 10° NNW
Cosmos 1400 Rocket 3.9 20:12:30 10° N 20:15:41 27° ENE 20:18:44 11° SE
Meteor 1-23 Rocket 4.4 20:13:26 10° S 20:18:48 54° E 20:24:14 10° NNE
Iridium 45 4.1 20:16:39 10° S 20:19:43 87° E 20:22:53 10° N
USA 215 3.7 20:16:43 10° E 20:23:10 66° NNE 20:29:38 10° WNW
Cosmos 1420 Rocket 4.5 20:20:08 10° NNW 20:25:14 56° WSW 20:30:15 10° S
NOSS 2-1 (E) 3.9 20:25:56 10° S 20:29:23 29° SE 20:32:16 10° ENE
Meteor 1-15 Rocket 4.5 20:23:43 10° NNW 20:29:28 72° W 20:35:06 10° S
NOSS 2-3 (C) 4.1 20:28:27 10° WSW 20:31:46 49° NW 20:35:28 10° NE
SWARM A 4.4 20:29:01 10° N 20:32:14 68° W 20:35:24 10° S
Cosmos 2344 3.4 20:27:24 10° SSW 20:35:07 72° SE 20:42:19 10° NE
Ariane Rocket 3.5 20:32:19 10° S 20:37:18 56° W 20:42:18 10° NNW
USA 276 2.7 20:39:09 10° SSW 20:41:02 21° SSE 20:43:06 10° E
CZ-4B R/B 4.0 20:38:01 10° SSW 20:41:44 39° W 20:45:32 10° NNW
Cosmos 2315 Rocket 4.0 20:37:43 10° S 20:43:57 84° E 20:50:11 10° N
Okean O Rocket 3.9 20:41:16 10° SW 20:44:23 19° W 20:47:31 10° NW
Iridium 4 Rocket 4.1 20:39:31 10° SSW 20:44:29 53° W 20:49:03 10° N
Cosmos 1833 Rocket 4.3 20:40:43 10° NW 20:45:19 26° WSW 20:49:54 10° SSW
USA 59 Rocket -0.9 20:44:34 10° SW 20:48:05 67° SE 20:51:03 10° NE
Cosmos 923 Rocket 4.2 20:45:17 10° SSW 20:50:31 77° WNW 20:55:45 10° NNE
Cosmos 1470 Rocket 3.7 20:46:25 10° NNW 20:50:53 74° W 20:54:40 14° S
Lacrosse 4 Rocket 3.8 20:48:14 10° NNW 20:51:16 19° NNE 20:54:16 10° ENE
CZ-4B R/B 4.3 20:47:13 10° S 20:52:11 47° W 20:57:16 10° NNW
NOSS 2-1 (D) 2.8 20:49:19 10° SSW 20:52:56 62° SE 20:55:57 10° NE
Helios 1B rocket 3.5 20:51:01 12° ESE 20:53:30 25° ENE 20:56:25 10° N
Cosmos 1953 4.2 20:54:51 10° NW 20:57:35 21° W 21:00:19 10° SW
Cosmos 2112 Rocket 3.9 20:52:51 10° SSW 20:58:01 80° ESE 21:03:13 10° NNE
Cosmos 1933 Rocket 3.7 20:53:55 10° N 20:58:13 62° ENE 21:01:24 18° SSE
Cosmos 1328 Rocket 4.3 20:55:11 10° SSW 20:59:24 50° WNW 21:03:37 10° N
Cosmos 1110 Rocket 4.0 20:56:01 10° NNW 21:01:14 76° ENE 21:05:16 17° SSE
Okean 3 3.7 20:59:11 18° SSE 21:01:58 50° E 21:05:52 10° NNE
S3M 4.4 20:56:03 10° SSW 21:02:06 61° WNW 21:08:15 10° N
Cosmos 1441 Rocket 3.4 21:00:47 20° SSE 21:02:31 38° E 21:05:33 10° NNE
Cosmos 1812 1.5 21:01:15 10° N 21:02:51 34° ENE 21:03:01 33° E
USA 308 3.7 21:07:45 16° ESE 21:07:45 16° ESE 21:09:25 10° E
CZ-2C R/B 3.2 21:05:29 15° SSW 21:07:19 31° W 21:09:50 10° NNW
BREEZE-M R/B 3.9 21:04:41 10° WSW 21:09:13 67° SSE 21:18:32 10° E
Cosmos 2082 Rocket 2.3 21:03:39 10° NNW 21:09:17 72° WSW 21:13:35 17° SSE
Cosmos 1452 Rocket 3.8 21:06:17 10° NNW 21:11:32 63° ENE 21:15:39 16° SE
NOSS 2-1 (C) 2.7 21:09:02 10° SW 21:12:41 80° SE 21:15:43 10° NE
Cosmos 2278 Rocket 2.3 21:09:31 10° SSW 21:15:12 83° WNW 21:20:55 10° NNE
Cosmos 2184 Rocket 4.1 21:09:24 10° N 21:15:43 71° ENE 21:20:39 18° SSE
Cosmos 494 Rocket 4.2 21:10:35 10° SSW 21:15:49 75° WNW 21:21:06 10° NNE
Cosmos 2154 Rocket 4.1 21:10:42 10° N 21:16:54 67° ENE 21:21:41 18° SSE
Helios 1A 3.0 21:14:09 10° NNE 21:18:04 58° ESE 21:20:40 20° S
SL-4 R/B 3.3 21:22:40 16° ESE 21:22:40 16° ESE 21:23:46 10° E
Timation 2 Rocket 4.0 21:15:57 10° SSW 21:22:15 74° ESE 21:28:53 10° NE
Cosmos 1174 3.7 21:21:43 15° SSW 21:24:45 52° SE 21:28:02 10° NE
USA 238 DEB 3.8 21:18:49 10° SW 21:25:01 76° NW 21:31:58 10° NE
USA 238 3.8 21:19:02 10° SW 21:25:14 76° NW 21:32:12 10° NE
Cosmos 1331 Rocket 4.0 21:20:24 10° NNW 21:25:34 76° WSW 21:29:12 20° SSE
Lacrosse 5 rocket 2.7 21:23:41 10° W 21:27:00 35° N 21:30:15 10° ENE
Cosmos 1943 Rocket 2.9 21:21:37 10° SW 21:27:11 57° NW 21:32:45 10° NNE
Cosmos 1869 Rocket 3.5 21:26:09 10° NNW 21:30:30 86° W 21:33:18 21° S
SL-8 R/B 3.9 21:26:17 10° SW 21:30:45 43° SSE 21:35:15 10° E
ARIANE 5 R/B 3.0 21:27:49 19° SE 21:30:50 54° ENE 21:35:09 10° N
ARGOS Delta rocket 4.1 21:26:58 10° NNE 21:32:14 67° E 21:35:46 19° S
CZ-2C R/B 4.2 21:27:44 10° NNE 21:32:18 47° E 21:35:10 21° SSE
Cosmos 546 4.4 21:29:07 10° W 21:32:54 79° S 21:36:41 10° E
CZ-2C R/B 4.5 21:31:35 10° NE 21:35:58 25° E 21:38:51 16° SE
BREEZE-M DEB (TANK) 3.9 21:20:25 10° W 21:37:54 79° S 21:42:40 10° ESE
CZ-2C R/B 4.0 21:34:58 10° ESE 21:39:28 31° ENE 21:44:05 10° N
Cosmos 1515 Rocket 4.4 21:36:36 11° SSW 21:40:40 46° WNW 21:44:51 10° N
Cosmos 1733 Rocket 3.4 21:38:17 10° N 21:42:31 53° ENE 21:45:08 22° SE
USA 81 4.4 21:40:07 10° NNW 21:45:18 58° W 21:49:12 17° SSW
ALOS 2 2.8 21:44:00 21° SSE 21:46:48 66° ENE 21:51:10 10° N
Cosmos 1707 Rocket 4.4 21:45:49 21° SE 21:48:08 36° E 21:52:12 10° NNE
Cosmos 1048 Rocket 4.1 21:43:50 12° SSW 21:48:44 81° WNW 21:54:05 10° NNE
Cosmos 2228 Rocket 4.4 21:48:39 18° SE 21:50:55 28° E 21:54:41 10° NNE
Cosmos 1400 Rocket 4.2 21:47:52 10° NW 21:50:57 26° W 21:53:10 15° SW
COSMOS 2406 3.3 21:45:46 10° NNW 21:51:28 72° WSW 21:55:18 21° SSE
Cosmos 2369 Rocket 3.0 21:50:40 21° SSE 21:53:37 35° ESE 21:58:39 10° NE
NOSS 7 (E) 4.2 21:52:09 10° NW 21:55:20 70° SW 21:56:45 30° SSE
USA 290 3.1 21:54:04 10° NNW 21:57:05 40° ENE 21:58:47 21° ESE
Cosmos 1862 Rocket 3.9 21:57:21 24° SSE 21:59:37 50° E 22:03:47 10° NNE
ARIANE 6 FM1 Upper Stage 3.0 21:58:06 24° S 22:00:14 45° SE 22:04:10 10° ENE
Cosmos 1315 Rocket 3.3 21:57:37 10° N 22:01:19 47° ENE 22:03:25 22° SE
Cosmos 972 Rocket 4.0 21:56:56 10° NNW 22:02:35 84° WSW 22:05:53 23° SSE
Cosmos 1656 Rocket 3.6 21:59:36 16° SSW 22:04:07 83° ESE 22:09:44 10° NNE
USA 215 3.3 22:00:17 13° SE 22:06:14 66° SW 22:12:45 10° WNW
Cosmos 1302 Rocket 4.0 22:05:07 10° NNW 22:10:24 74° WSW 22:13:43 23° SSE
USA 276 1.5 22:10:54 10° WSW 22:13:24 59° S 22:16:10 10° E
Okean 1-7 3.0 22:12:10 26° S 22:14:26 72° E 22:18:40 10° NNE
PSLV R/B 3.7 22:11:44 10° NNE 22:16:25 74° ESE 22:19:10 24° S
NOSS 3-1 (A) 4.1 22:18:34 20° SE 22:20:16 24° ESE 22:24:34 10° ENE
Spot 4 4.2 22:17:54 23° S 22:20:47 55° W 22:25:32 10° NNW
Cosmos 2366 rocket 4.2 22:15:57 10° N 22:22:18 68° ENE 22:26:49 20° SSE
Cosmos 1908 Rocket 4.3 22:18:52 10° N 22:23:08 44° ENE 22:25:58 19° SE
Cosmos 1328 4.2 22:21:51 22° SW 22:23:51 48° WNW 22:27:18 10° N
NOSS 3-1 (C) 3.0 22:21:46 21° SSW 22:24:50 61° SE 22:30:26 10° NE
Cosmos 2327 Rocket 4.4 22:19:06 10° N 22:25:15 86° W 22:29:20 22° S
IRIDIUM 106 4.3 22:20:11 10° N 22:25:27 88° E 22:28:42 24° S
Helios 1B rocket 3.4 22:24:53 20° SW 22:26:21 27° W 22:29:23 10° NW
Cosmos 220 Rocket 4.0 22:23:21 10° NNW 22:27:34 75° ENE 22:30:04 23° SSE
USA 308 2.0 22:26:24 20° WSW 22:28:21 80° SSE 22:32:24 10° ENE
Lacrosse 4 Rocket 1.4 22:25:26 10° NW 22:29:40 82° NE 22:32:24 21° SE
Cosmos 1818 4.1 22:30:25 24° S 22:33:16 43° ESE 22:38:24 10° NE
Cosmos 1821 Rocket 4.3 22:29:06 10° N 22:35:08 58° ENE 22:39:42 18° SSE
USA 59 Rocket 2.1 22:34:38 10° WNW 22:36:49 17° NNW 22:38:55 10° NNE
ATLAS 5 CENTAUR R/B 0.7 22:37:18 23° SW 22:38:58 71° NW 22:42:09 10° NE
Cosmos 1992 Rocket 4.0 22:34:33 10° NNW 22:39:45 72° WSW 22:42:56 24° S
Nadezhda 1 Rocket 4.4 22:36:02 17° SSW 22:40:49 58° WNW 22:47:02 10° N
BREEZE-M DEB (TANK) 2.7 22:36:13 10° WNW 22:41:22 50° SSW 22:42:17 33° SSE
COSMOS 2455 3.3 22:38:34 23° S 22:41:59 44° ESE 22:47:40 10° NE
Cosmos 2218 Rocket 4.0 22:36:36 10° N 22:42:59 85° E 22:47:20 21° SSE
GEOS 3 Rocket 3.7 22:40:59 18° SSE 22:44:59 69° SW 22:50:24 10° NW
Meteor 1-24 Rocket 3.9 22:41:09 22° S 22:45:15 90° ESE 22:51:19 10° NNE
Exosat Rocket 4.5 22:44:00 15° SW 22:49:16 76° WNW 22:58:00 10° NNE
Cosmos 2263 4.3 22:46:13 23° SSW 22:49:50 66° ESE 22:55:31 10° NE
Cosmos 2082 Rocket 4.3 22:49:47 10° WNW 22:52:20 13° W 22:54:51 10° WSW
ACS3 Solar Sail 1.9 22:47:26 10° NNE 22:53:02 56° E 22:56:47 22° S
MetOp-A 3.4 22:52:47 29° S 22:54:32 60° WSW 22:58:17 10° NNW
Cosmos 1869 2.8 22:51:54 10° NNW 22:55:22 80° W 22:56:49 33° S
SL-4 R/B 1.2 22:55:57 17° WSW 22:58:14 65° SSE 23:01:21 10° E
Cosmos 2278 Rocket 4.4 22:55:41 10° W 23:00:08 23° NW 23:04:36 10° NNE
Lacrosse 5 rocket 2.6 23:00:49 10° WNW 23:04:05 35° N 23:07:18 10° E
SJ 16-02 3.6 23:02:38 10° SE 23:04:50 14° E 23:07:02 10° ENE
ARIANE 5 R/B 4.4 23:05:10 15° SW 23:07:26 21° W 23:10:47 10° NW
Meteor 2-5 Rocket 3.9 23:04:24 21° SSW 23:08:27 72° WNW 23:14:24 10° N
Cosmos 1300 Rocket 3.5 23:04:13 10° N 23:08:34 79° E 23:11:09 24° SSE
SL-8 Rocket 4.3 23:04:14 10° NNW 23:10:13 55° W 23:14:17 21° SSW
NOSS 2-2 (C) 3.7 23:07:28 10° NW 23:10:54 61° NE 23:15:25 10° SE
CENTAUR R/B 4.0 23:04:20 10° NW 23:11:52 53° NNE 23:20:49 10° ESE
Cosmos 921 Rocket 4.2 23:10:28 19° SE 23:12:35 29° E 23:16:13 10° NE
SL-8 R/B 3.6 23:08:02 10° W 23:12:43 62° S 23:17:25 10° E
CZ-2C R/B 3.5 23:10:51 10° N 23:16:09 58° WNW 23:19:49 18° SW
CZ-2C R/B 3.0 23:16:25 22° SSW 23:19:30 48° W 23:24:38 10° NNW
IDEFIX/ARIANE 42P 4.5 23:16:44 10° NE 23:20:34 20° E 23:24:20 10° SE
Cosmos 1703 Rocket 3.7 23:26:16 24° SSW 23:28:50 66° WNW 23:33:15 10° N
Cosmos 2228 Rocket 4.1 23:26:00 17° SW 23:28:53 36° WNW 23:32:59 10° N
Landsat 5 3.1 23:26:22 10° NNE 23:30:06 87° ESE 23:32:03 27° SSW
Cosmos 1356 Rocket 4.5 23:26:53 10° NNW 23:30:27 31° W 23:32:18 21° SW
USA 290 4.2 23:28:58 10° WNW 23:30:49 15° WSW 23:31:10 14° WSW
Geosat 4.5 23:26:22 10° NE 23:31:12 47° ESE 23:34:16 21° S
Cosmos 2297 Rocket 3.4 23:27:47 10° NNW 23:33:12 42° NE 23:38:33 10° ESE
OPS 8737 4.0 23:33:10 10° NW 23:36:22 77° SW 23:38:27 19° SE
Cosmos 2369 Rocket 2.9 23:32:23 12° SW 23:37:28 50° NW 23:42:57 10° NNE
ARIANE 6 FM1 Upper Stage 3.9 23:35:21 10° W 23:39:17 39° NNW 23:43:09 10° NE
Cosmos 2297 4.3 23:36:40 13° SW 23:41:46 53° NW 23:47:23 10° NNE
Cosmos 1269 Rocket 4.1 23:41:39 21° S 23:45:10 72° ESE 23:50:28 10° NNE
USA 276 1.8 23:43:20 10° W 23:46:00 52° SSW 23:48:54 10° ESE
Cosmos 2239 Rocket 4.5 23:41:00 10° NNW 23:47:09 73° W 23:51:49 18° S
Cosmos 540 Rocket 3.4 23:44:58 10° NNW 23:50:05 85° ENE 23:55:00 11° SSE
USA 215 4.4 23:47:35 18° SSW 23:50:06 23° SW 23:55:06 10° WNW
USA 308 3.2 23:47:03 10° W 23:50:31 58° N 23:54:44 10° ENE
Cosmos 2242 Rocket 4.4 23:47:43 16° SSE 23:50:53 43° E 23:55:04 10° NNE
